TimeMDT,TemperatureF,Dew PointF,Humidity,Sea Level PressureIn,VisibilityMPH,Wind Direction,Wind SpeedMPH,Gust SpeedMPH,PrecipitationIn,Events,Conditions,WindDirDegrees,DateUTC
12:55 AM,23.0,10.0,58,29.91,10.0,East,17.3,26.5,N/A,,Overcast,90,2013-03-21 06:55:00
1:55 AM,23.0,10.0,58,29.90,10.0,East,18.4,-,N/A,,Overcast,100,2013-03-21 07:55:00
2:55 AM,21.0,10.0,63,29.85,10.0,East,23.0,26.5,N/A,,Overcast,100,2013-03-21 08:55:00
3:55 AM,19.9,10.0,65,29.85,10.0,East,16.1,-,N/A,,Overcast,90,2013-03-21 09:55:00
4:55 AM,19.9,10.9,68,29.84,10.0,East,16.1,24.2,N/A,,Overcast,90,2013-03-21 10:55:00
5:55 AM,21.0,12.9,71,29.84,10.0,East,15.0,-,N/A,,Overcast,90,2013-03-21 11:55:00
6:55 AM,21.9,15.1,75,29.83,10.0,East,17.3,23.0,N/A,,Overcast,100,2013-03-21 12:55:00
7:55 AM,23.0,16.0,74,29.83,10.0,ESE,18.4,28.8,N/A,,Overcast,110,2013-03-21 13:55:00
8:55 AM,26.1,18.0,71,29.82,10.0,ESE,21.9,28.8,N/A,,Overcast,120,2013-03-21 14:55:00
9:55 AM,28.9,19.0,67,29.81,10.0,ESE,18.4,-,N/A,,Overcast,110,2013-03-21 15:55:00
10:55 AM,33.1,19.9,59,29.79,10.0,East,19.6,-,N/A,,Partly Cloudy,90,2013-03-21 16:55:00
11:55 AM,37.0,21.9,54,29.78,10.0,East,21.9,27.6,N/A,,Mostly Cloudy,100,2013-03-21 17:55:00
12:55 PM,36.0,21.0,55,29.77,10.0,East,21.9,31.1,N/A,,Overcast,90,2013-03-21 18:55:00
1:55 PM,37.0,21.0,52,29.76,10.0,East,23.0,-,N/A,,Overcast,90,2013-03-21 19:55:00
2:55 PM,36.0,21.0,55,29.76,10.0,East,25.3,31.1,N/A,,Overcast,90,2013-03-21 20:55:00
3:55 PM,37.0,21.9,54,29.77,10.0,East,25.3,32.2,N/A,,Overcast,100,2013-03-21 21:55:00
4:55 PM,37.0,21.9,54,29.78,10.0,East,19.6,28.8,N/A,,Overcast,100,2013-03-21 22:55:00
5:55 PM,34.0,21.9,61,29.82,10.0,East,24.2,29.9,N/A,,Overcast,100,2013-03-21 23:55:00
6:55 PM,30.9,21.9,69,29.85,10.0,East,15.0,24.2,N/A,,Overcast,100,2013-03-22 00:55:00
7:55 PM,30.0,21.9,72,29.88,10.0,East,15.0,-,N/A,,Overcast,90,2013-03-22 01:55:00
8:55 PM,28.9,23.0,78,29.89,3.0,ESE,12.7,-,0.00,Snow,Light Snow,110,2013-03-22 02:55:00
9:05 PM,28.4,23.0,80,29.83,2.5,East,13.8,20.7,0.00,Snow,Light Snow,100,2013-03-22 03:05:00
9:10 PM,28.4,24.8,86,29.84,4.0,East,12.7,-,0.00,Snow,Light Snow,100,2013-03-22 03:10:00
9:55 PM,28.0,24.1,85,29.91,2.5,East,12.7,-,0.01,Snow,Light Snow,100,2013-03-22 03:55:00
10:09 PM,28.4,24.8,86,29.85,1.8,East,11.5,-,0.02,Snow,Light Snow,100,2013-03-22 04:09:00
10:55 PM,27.0,25.0,92,29.91,0.8,East,10.4,-,0.06,Snow,Light Snow,90,2013-03-22 04:55:00
11:08 PM,26.6,24.8,93,29.86,1.0,East,10.4,-,0.02,Snow,Light Snow,100,2013-03-22 05:08:00
11:51 PM,26.6,24.8,93,29.86,0.8,East,9.2,-,0.06,Snow,Light Snow,90,2013-03-22 05:51:00
11:55 PM,27.0,25.0,92,29.91,0.8,East,9.2,-,0.06,Snow,Light Snow,90,2013-03-22 05:55:00